Location: Madden
(51.3728°N, 114.3297°W)
Time: 05:57:38
(UTC+00:00)

PCSat - Pass Details

Date: 05 December 2023
Orbit: 784 x 791 km, 67.0° (Epoch: 02 March)

Event Time Altitude Azimuth Distance (km) Brightness Sun altitude
Exits shadow 12:27:50 85° 249° (WSW) 797 9.4 -26.5°
Maximum altitude 12:27:58 87° 306° (NW) 795 9.4 -26.5°
Drops below altitude 10° 12:33:24 10° 37° (NE) 2,361 12.4 -25.7°
Sets 12:35:50 0° 38° (NE) 3,294 13.2 -25.3°
